Location: Boiro
(42.6475°N, 8.8834°W)
Time: 18:08:02
(UTC+01:00)

Transit 2A - Pass Details

Date: 01 December 2021
Orbit: 591 x 967 km, 66.7° (Epoch: 20 January)

Event Time Altitude Azimuth Distance (km) Brightness Sun altitude
Rises 10:01:55 0° 333° (NNW) 3,654 8.9 10.4°
Reaches altitude 10° 10:04:45 10° 342° (NNW) 2,713 8.4 10.8°
Maximum altitude 10:10:34 35° 48° (NE) 1,494 7.7 11.5°
Drops below altitude 10° 10:16:12 10° 113° (ESE) 2,631 10.3 12.3°
Sets 10:18:54 0° 122° (ESE) 3,529 11.1 12.6°
